Location: Gleizolles
(44.4833°N, 6.7667°E)
Time: 04:12:43
(UTC+00:00)

Vanguard 1 Rocket - Pass Details

Date: 28 June 2024
Orbit: 650 x 4219 km, 34.3° (Epoch: 15 July)

Event Time Altitude Azimuth Distance (km) Brightness Sun altitude
Rises 05:45:15 0° 280° (W) 6,947 11.4 17.6°
Reaches altitude 10° 05:49:48 10° 273° (W) 6,329 11.2 18.4°
Maximum altitude 06:09:09 39° 214° (SW) 5,271 11.1 21.7°
Drops below altitude 10° 06:31:10 10° 156° (SSE) 7,049 12.2 25.6°
Sets 06:36:45 0° 149° (SSE) 7,761 12.4 26.6°
